"Pseudo-MPEC" for C3T2PF1

Created 2023 Sep 27 1:22:03 UT using Find_Orb

Click here for an explanation of pseudo-MPECs

 
 Astrometry: 
     C3T2PF1*1C2023 09 17.21384221 21 23.612+17 27 23.65   ~9HBMx      VNEOCP703
     C3T2PF1 1C2023 09 17.22025521 21 22.968+17 27 25.02   ~9HBM 18.78GVNEOCP703
     C3T2PF1 1C2023 09 17.22660421 21 22.100+17 27 27.50   ~9HBM 18.75GVNEOCP703
     C3T2PF1 KB2023 09 18=[Kw_?@9@9_uAK7)*xH3,+U7!JB0y:FJ7_CWxJ7mkMAstrometryM45
     C3T2PF1 KB2023 09 18\E24=Z!Ie1;f[7Q4redacted;Qw9B\6T4T$KJg)`f;O^uP-:aH[wM45
     C3T2PF1 KB2023 09 18`21kclickc$hy;B3I8KJYUeEJ:)FDk``mA]--HypMgoh/\kctqhSM45
     C3T2PF1 0B2023 09 20LSyPG\vk'7+uXh(fk'6rH,:1B+u=cp(pIY=`Ubglnb%\kE'L[yuAM49
     C3T2PF1 0B2023 09 209`E[[!xQ*herenU=1;rt(?hEx$6w`for2_k.SRLR3-S28]ZmlbM@M49
     C3T2PF1 0B2023 09 20kFb6x@uB-@h;s@gK-t$sgTZpCw@hC\XA8p]4$explanation#?vBM49

Station data:
(703) Catalina Sky Survey  (N32.417003 W110.732640)  US/Arizona.  Observer E.
   J. Christensen. 0.68 m Schmidt + 10K CCD.
(M45) Starhopper Observatory, Sfantu Gheorghe  (N45.865582 E25.768900)
   Romania.  Observer F. Ursache. 0.41-m f/7.5 reflector + CMO.
(M49) IAS Remote Observatory, Hakos  (S23.236549 E16.361720)  Namibia.
   Observers D. Husar, M. Junius. Measurer D. Husar. 0.25-m f/4.6 reflector +
   CCD.

Orbital elements:  C3T2PF1
   Perihelion 2023 Nov 1.31849 +/- 0.0799 TT =  7:38:37 (JD 2460249.81849)
Epoch 2023 Sep 20.0 TT = JDT 2460207.5   Earth MOID: 0.0070      AutoNEOCP
M 345.50695495 +/- 0.35             (J2000 ecliptic)
n   0.34247543 +/- 0.00781          Peri.  215.37149 +/- 0.049
a   2.02325099 +/- 0.0307           Node   191.61874 +/- 0.06
e   0.5433783 +/- 0.00725           Incl.    8.44197 +/- 0.07
P   2.88                   H 23.08  G  0.15   U  9.5
q 0.92386026 +/- 0.000622    Q 3.12264171 +/- 0.062
7 of 9 observations 2023 Sept. 17-20; mean residual 0".63
Residuals in arcseconds: 
230917 703( 2.7-  .14+)   230918 M45  .64+  .51+    230920 M49  1.1-  .69+    
230917 703  .21+  .34-    230918 M45  .63-  .49-    230920 M49  1.4+  .38-    
230917 703  .20-  .34+    230918 M45( 2.2+  2.0-)   230920 M49  .28-  .31-    

Ephemerides (geocentric):
Date (UTC) HH   RA             Dec           delta  r     elong  mag " sig PA
---- --------  ------------   ------------  ------ ------ -----  --- --------
2023 09 27 01  20 50 14.457   +18 25 26.65  .04514 1.0307 127.6 18.3 53.9  90
2023 09 27 02  20 49 57.433   +18 25 49.05  .04489 1.0305 127.5 18.3 55.1  90
2023 09 27 03  20 49 40.224   +18 26 11.59  .04464 1.0302 127.4 18.3 56.3  90
2023 09 27 04  20 49 22.828   +18 26 34.25  .04439 1.0300 127.3 18.3 57.5  90
2023 09 27 05  20 49 05.240   +18 26 57.06  .04413 1.0298 127.2 18.3 58.8  90
2023 09 27 06  20 48 47.458   +18 27 19.99  .04388 1.0295 127.1 18.2 60.1  90
2023 09 27 07  20 48 29.479   +18 27 43.07  .04363 1.0293 127.0 18.2 61.4  90
2023 09 27 08  20 48 11.297   +18 28 06.27  .04337 1.0291 126.9 18.2 62.8  90
2023 09 27 09  20 47 52.911   +18 28 29.62  .04312 1.0289 126.8 18.2 64.1  90
2023 09 27 10  20 47 34.317   +18 28 53.11  .04287 1.0286 126.7 18.2 65.6  90
2023 09 27 11  20 47 15.509   +18 29 16.73  .04261 1.0284 126.6 18.2 67.0  90
2023 09 27 12  20 46 56.486   +18 29 40.50  .04236 1.0282 126.5 18.2 68.5  90
2023 09 27 13  20 46 37.243   +18 30 04.40  .04211 1.0279 126.4 18.2 70.0  90
2023 09 27 14  20 46 17.776   +18 30 28.45  .04186 1.0277 126.3 18.2 71.5  90
2023 09 27 15  20 45 58.080   +18 30 52.63  .04160 1.0275 126.2 18.2 73.1  90
2023 09 27 16  20 45 38.152   +18 31 16.96  .04135 1.0273 126.1 18.1 74.7  90
2023 09 27 17  20 45 17.987   +18 31 41.44  .04110 1.0270 126.0 18.1 76.4  90
2023 09 27 18  20 44 57.581   +18 32 06.05  .04085 1.0268 125.9 18.1 78.1  91
2023 09 27 19  20 44 36.930   +18 32 30.81  .04060 1.0266 125.8 18.1 79.8  91
2023 09 27 20  20 44 16.028   +18 32 55.71  .04034 1.0263 125.7 18.1 81.6  91
2023 09 27 21  20 43 54.871   +18 33 20.76  .04009 1.0261 125.6 18.1 83.4  91
2023 09 27 22  20 43 33.455   +18 33 45.95  .03984 1.0259 125.4 18.1 85.3  91
2023 09 27 23  20 43 11.774   +18 34 11.28  .03959 1.0257 125.3 18.1 87.2  91
2023 09 28 00  20 42 49.822   +18 34 36.76  .03934 1.0254 125.2 18.1 89.2  91
2023 09 28 01  20 42 27.596   +18 35 02.39  .03909 1.0252 125.1 18.0 91.1  91
2023 09 28 02  20 42 05.089   +18 35 28.15  .03883 1.0250 125.0 18.0 93.2  91
2023 09 28 03  20 41 42.297   +18 35 54.06  .03858 1.0248 124.9 18.0 95.3  91
2023 09 28 04  20 41 19.212   +18 36 20.12  .03833 1.0245 124.7 18.0 97.4  91
2023 09 28 05  20 40 55.831   +18 36 46.32  .03808 1.0243 124.6 18.0 99.6  91
2023 09 28 06  20 40 32.146   +18 37 12.66  .03783 1.0241 124.5 18.0  102  91
2023 09 28 07  20 40 08.152   +18 37 39.14  .03758 1.0239 124.4 18.0  104  91
2023 09 28 08  20 39 43.842   +18 38 05.76  .03733 1.0236 124.2 18.0  107  91
2023 09 28 09  20 39 19.210   +18 38 32.52  .03708 1.0234 124.1 18.0  109  91
2023 09 28 10  20 38 54.250   +18 38 59.43  .03683 1.0232 124.0 17.9  111  91
2023 09 28 11  20 38 28.955   +18 39 26.47  .03658 1.0230 123.9 17.9  114  91
2023 09 28 12  20 38 03.318   +18 39 53.64  .03632 1.0227 123.7 17.9  117  91
2023 09 28 13  20 37 37.331   +18 40 20.95  .03607 1.0225 123.6 17.9  119  91
2023 09 28 14  20 37 10.988   +18 40 48.40  .03582 1.0223 123.5 17.9  122  91
2023 09 28 15  20 36 44.281   +18 41 15.98  .03557 1.0221 123.3 17.9  125  91
2023 09 28 16  20 36 17.202   +18 41 43.68  .03532 1.0218 123.2 17.9  128  91
2023 09 28 17  20 35 49.744   +18 42 11.51  .03507 1.0216 123.1 17.9  131  91
2023 09 28 18  20 35 21.899   +18 42 39.47  .03482 1.0214 122.9 17.9  134  91
2023 09 28 19  20 34 53.657   +18 43 07.55  .03457 1.0212 122.8 17.8  137  91
2023 09 28 20  20 34 25.011   +18 43 35.75  .03433 1.0209 122.6 17.8  140  91
2023 09 28 21  20 33 55.951   +18 44 04.06  .03408 1.0207 122.5 17.8  143  91
2023 09 28 22  20 33 26.470   +18 44 32.48  .03383 1.0205 122.4 17.8  147  91
2023 09 28 23  20 32 56.556   +18 45 01.01  .03358 1.0203 122.2 17.8  150  91
2023 09 29 00  20 32 26.202   +18 45 29.65  .03333 1.0200 122.1 17.8  154  91